Track STARLINK-1760 now! 10-day predictions STARLINK-1760 is classified as:
1 46341U 20062S 21024.91667824 -.00032463 00000-0 -21702-2 0 9994 2 46341 53.0690 110.2824 0000898 97.5744 108.9393 15.06405053 1757